Other Surface Observations
Issued by NWS Jacksonville, FL

Home | Current Version | Previous Version | Text Only | Print | Product List | Glossary On
Versions: 1 2 3 4 5 6 7 8 9 10 11 12 13 14 15 16 17 18 19 20 21 22 23 24 25 26 27 28 29 30 31 32 33 34 35 36 37 38 39 40 41 42 43 44 45 46 47 48 49 50
000
SXUS52 KJAX 061113
OSOJAX
OTHER SURFACE OBSERVATIONS
NATIONAL WEATHER SERVICE JACKSONVILLE FL
600 AM EST FRI MAR 06 2015

FLZ020>025-030>033-035>038-040-061200-
...FLORIDA...

CITY           SKY/WX    TMP DP  RH WIND       PRES   REMARKS
CECIL FIELD    NOT AVBL
HERLONG FIELD  NOT AVBL
FERNANDINA BCH NOT AVBL
LAKE CITY      CLOUDY    46  45  93 N10       30.23R
JUNIPER SPGS   NOT AVBL
BUNNELL        NOT AVBL
KEYSTONE HGTS  CLOUDY    55  54  94 N9        30.22R
$$

GAZ132>136-149>154-162>166-061200-
...GEORGIA...

CITY           SKY/WX    TMP DP  RH WIND       PRES   REMARKS
JESUP          CLOUDY    48  46  93 NE9       30.30R
HOMERVILLE     CLOUDY    46  43  87 N5        30.29R
SWAINSBORO     CLOUDY    43  36  75 NE7       30.34R WCI  39
CORDELE        NOT AVBL
EASTMAN        CLOUDY    39  39 100 N3        30.35R
$$

PLEASE NOTE:  THESE OBSERVATIONS ARE NOT QUALITY CONTROLLED AND MAY
NOT BE AVAILABLE AT ALL TIMES.
$$



USA.gov is the U.S. government's official web portal to all federal, state and local government web resources and services.